| time (UTC) | temp F | wind direction | speed knots | gust knots | rain 1hr in | rain 24hr in | rain mn in | humidity % | barometer mb |
| 20260510075332 | 71 | 90 | 0.0 | 0.9 | 0.00 | 0.00 | 0.00 | 95 | 1015.2 |
| 20260510074828 | 71 | 90 | 0.0 | 0.0 | 0.00 | 0.00 | 0.00 | 95 | 1015.2 |
| 20260510074325 | 71 | 90 | 0.0 | 0.0 | 0.00 | 0.00 | 0.00 | 95 | 1015.0 |
| 20260510073821 | 71 | 160 | 0.0 | 0.9 | 0.00 | 0.00 | 0.00 | 95 | 1014.8 |
| 20260510073317 | 71 | 120 | 0.0 | 1.7 | 0.00 | 0.00 | 0.00 | 95 | 1014.9 |
| 20260510072814 | 71 | 107 | 1.7 | 1.7 | 0.00 | 0.00 | 0.00 | 95 | 1014.9 |
| 20260510072310 | 71 | 103 | 0.9 | 1.7 | 0.00 | 0.00 | 0.00 | 95 | 1014.8 |
| 20260510071807 | 71 | 106 | 0.0 | 0.9 | 0.00 | 0.00 | 0.00 | 95 | 1014.9 |
| 20260510071303 | 71 | 90 | 0.0 | 0.0 | 0.00 | 0.00 | 0.00 | 95 | 1014.8 |
| 20260510070757 | 71 | 106 | 0.0 | 0.9 | 0.00 | 0.00 | 0.00 | 95 | 1015.0 |
| 20260510070253 | 71 | 90 | 0.0 | 0.0 | 0.00 | 0.00 | 0.00 | 95 | 1015.0 |
| 20260510065753 | 71 | 90 | 0.0 | 1.7 | 0.00 | 0.00 | 0.00 | 95 | 1014.6 |
| 20260510065250 | 71 | 90 | 0.0 | 0.9 | 0.00 | 0.00 | 0.00 | 95 | 1014.9 |
| 20260510064746 | 72 | 74 | 0.0 | 0.9 | 0.00 | 0.00 | 0.00 | 95 | 1015.0 |
| 20260510064244 | 71 | 105 | 0.0 | 0.0 | 0.00 | 0.00 | 0.00 | 95 | 1015.0 |
| 20260510063740 | 71 | 106 | 0.0 | 0.0 | 0.00 | 0.00 | 0.00 | 95 | 1014.9 |
| 20260510063236 | 71 | 106 | 0.0 | 0.9 | 0.00 | 0.00 | 0.00 | 95 | 1015.0 |
| 20260510062733 | 71 | 102 | 1.7 | 1.7 | 0.00 | 0.00 | 0.00 | 95 | 1015.1 |
| 20260510062229 | 71 | 114 | 0.0 | 0.9 | 0.00 | 0.00 | 0.00 | 95 | 1015.1 |
| 20260510061725 | 71 | 114 | 1.7 | 2.6 | 0.00 | 0.00 | 0.00 | 95 | 1014.9 |
| 20260510061222 | 71 | 90 | 1.7 | 1.7 | 0.00 | 0.00 | 0.00 | 95 | 1015.1 |
| 20260510060718 | 71 | 103 | 0.9 | 1.7 | 0.00 | 0.00 | 0.00 | 95 | 1015.2 |
| 20260510060215 | 71 | 114 | 0.0 | 0.9 | 0.00 | 0.00 | 0.00 | 95 | 1015.4 |
| 20260510055712 | 71 | 90 | 0.0 | 0.0 | 0.00 | 0.00 | 0.00 | 95 | 1015.6 |
| 20260510055210 | 71 | 90 | 0.0 | 0.9 | 0.00 | 0.00 | 0.00 | 95 | 1015.7 |
| 20260510054705 | 71 | 105 | 0.0 | 0.0 | 0.00 | 0.00 | 0.00 | 95 | 1015.7 |
| 20260510054200 | 71 | 120 | 0.0 | 0.9 | 0.00 | 0.00 | 0.00 | 95 | 1015.6 |
| 20260510053700 | 71 | 105 | 0.9 | 1.7 | 0.00 | 0.00 | 0.00 | 95 | 1015.6 |
| 20260510053157 | 71 | 120 | 1.7 | 1.7 | 0.00 | 0.00 | 0.00 | 95 | 1015.8 |
| 20260510052652 | 71 | 105 | 2.6 | 2.6 | 0.00 | 0.00 | 0.00 | 95 | 1015.9 |
| 20260510052149 | 71 | 90 | 0.0 | 1.7 | 0.00 | 0.00 | 0.00 | 95 | 1015.7 |
| 20260510051645 | 71 | 98 | 0.0 | 1.7 | 0.00 | 0.00 | 0.00 | 95 | 1016.0 |
| 20260510051141 | 71 | 74 | 0.9 | 1.7 | 0.00 | 0.00 | 0.00 | 95 | 1016.1 |
| 20260510050639 | 71 | 105 | 0.0 | 0.0 | 0.00 | 0.00 | 0.00 | 94 | 1016.2 |
| 20260510050136 | 71 | 151 | 0.0 | 0.0 | 0.00 | 0.00 | 0.00 | 94 | 1016.2 |
| 20260510045632 | 70 | 174 | 0.0 | 0.0 | 0.00 | 0.00 | 0.00 | 94 | 1016.4 |
| 20260510045129 | 70 | 106 | 0.0 | 0.0 | 0.00 | 0.00 | 0.00 | 94 | 1016.1 |
| 20260510044625 | 71 | 145 | 0.0 | 1.7 | 0.00 | 0.00 | 0.00 | 94 | 1016.4 |
| 20260510044123 | 71 | 111 | 0.0 | 0.9 | 0.00 | 0.00 | 0.00 | 94 | 1016.2 |
| 20260510043618 | 71 | 114 | 0.0 | 0.9 | 0.00 | 0.00 | 0.00 | 94 | 1016.4 |
| 20260510043115 | 71 | 151 | 0.9 | 0.9 | 0.00 | 0.00 | 0.00 | 95 | 1016.2 |
| 20260510042613 | 71 | 103 | 0.0 | 1.7 | 0.00 | 0.00 | 0.00 | 94 | 1016.3 |
| 20260510042108 | 71 | 99 | 0.0 | 0.0 | 0.00 | 0.00 | 0.00 | 94 | 1016.5 |
| 20260510041606 | 71 | 99 | 0.0 | 0.0 | 0.00 | 0.00 | 0.00 | 94 | 1016.3 |
| 20260510041103 | 71 | 99 | 0.0 | 0.0 | 0.00 | 0.00 | 0.00 | 94 | 1016.3 |
| 20260510040600 | 71 | 99 | 0.0 | 0.0 | 0.00 | 0.00 | 0.00 | 94 | 1016.4 |
| 20260510040056 | 71 | 99 | 0.0 | 0.0 | 0.00 | 0.35 | 0.35 | 94 | 1016.1 |
| 20260510035552 | 71 | 99 | 0.0 | 0.0 | 0.00 | 0.35 | 0.35 | 94 | 1016.6 |
| 20260510035052 | 71 | 99 | 0.0 | 0.0 | 0.00 | 0.35 | 0.35 | 94 | 1016.3 |
| 20260510034550 | 71 | 99 | 0.0 | 0.0 | 0.00 | 0.35 | 0.35 | 94 | 1016.6 |
| 20260510034047 | 71 | 114 | 0.0 | 0.0 | 0.00 | 0.35 | 0.35 | 94 | 1016.5 |
| 20260510033543 | 72 | 157 | 0.0 | 0.0 | 0.00 | 0.35 | 0.35 | 94 | 1016.3 |
| 20260510033041 | 71 | 172 | 0.0 | 0.0 | 0.00 | 0.35 | 0.35 | 94 | 1016.3 |
| 20260510032537 | 71 | 172 | 0.0 | 0.0 | 0.00 | 0.35 | 0.35 | 94 | 1016.3 |
| 20260510032033 | 71 | 172 | 0.0 | 0.0 | 0.00 | 0.35 | 0.35 | 94 | 1016.3 |
| 20260510031528 | 71 | 172 | 0.0 | 0.0 | 0.00 | 0.35 | 0.35 | 94 | 1016.7 |
| 20260510031024 | 71 | 172 | 0.0 | 0.0 | 0.00 | 0.35 | 0.35 | 94 | 1016.6 |
| 20260510030520 | 71 | 172 | 0.0 | 0.0 | 0.00 | 0.35 | 0.35 | 94 | 1016.3 |
| 20260510030017 | 71 | 172 | 0.0 | 0.0 | 0.00 | 0.35 | 0.35 | 94 | 1016.2 |
| 20260510025514 | 71 | 172 | 0.0 | 0.0 | 0.00 | 0.35 | 0.35 | 94 | 1016.4 |
| 20260510025012 | 71 | 172 | 0.0 | 0.0 | 0.00 | 0.35 | 0.35 | 94 | 1016.4 |
| 20260510024508 | 71 | 180 | 0.0 | 0.0 | 0.00 | 0.35 | 0.35 | 94 | 1016.2 |
| 20260510024004 | 72 | 90 | 0.0 | 1.7 | 0.00 | 0.35 | 0.35 | 94 | 1015.7 |
| 20260510023500 | 71 | 90 | 0.0 | 0.0 | 0.00 | 0.35 | 0.35 | 94 | 1015.8 |
| 20260510022957 | 71 | 90 | 0.0 | 0.0 | 0.02 | 0.35 | 0.35 | 94 | 1015.8 |
| 20260510022457 | 71 | 90 | 0.0 | 0.0 | 0.02 | 0.35 | 0.35 | 94 | 1015.7 |
| 20260510021956 | 71 | 90 | 0.0 | 0.0 | 0.00 | 0.35 | 0.35 | 94 | 1015.5 |
| 20260510021454 | 72 | 90 | 0.0 | 0.0 | 0.00 | 0.35 | 0.35 | 94 | 1015.5 |
| 20260510020951 | 71 | 90 | 0.0 | 0.0 | 0.00 | 0.35 | 0.35 | 94 | 1015.6 |
| 20260510020450 | 72 | 90 | 0.0 | 0.0 | 0.00 | 0.35 | 0.35 | 94 | 1015.6 |
| 20260510015946 | 72 | 90 | 0.0 | 0.0 | 0.00 | 0.35 | 0.35 | 94 | 1015.2 |
| 20260510015443 | 71 | 90 | 0.0 | 0.0 | 0.00 | 0.35 | 0.35 | 94 | 1015.0 |
| 20260510014938 | 72 | 90 | 0.0 | 0.0 | 0.00 | 0.35 | 0.35 | 94 | 1015.0 |
| 20260510014436 | 71 | 90 | 0.0 | 0.0 | 0.00 | 0.35 | 0.35 | 94 | 1014.9 |
| 20260510013932 | 72 | 90 | 0.0 | 0.0 | 0.00 | 0.35 | 0.35 | 94 | 1014.9 |
| 20260510013427 | 71 | 90 | 0.0 | 0.0 | 0.00 | 0.35 | 0.35 | 94 | 1015.1 |
| 20260510012923 | 72 | 90 | 0.0 | 0.9 | 0.00 | 0.35 | 0.35 | 94 | 1015.2 |
| 20260510012418 | 72 | 187 | 0.0 | 0.9 | 0.00 | 0.35 | 0.35 | 93 | 1015.0 |
| 20260510011913 | 72 | 180 | 0.0 | 0.0 | 0.00 | 0.35 | 0.35 | 93 | 1014.9 |
| 20260510011408 | 72 | 90 | 0.0 | 0.0 | 0.00 | 0.35 | 0.35 | 93 | 1014.7 |
| 20260510010904 | 72 | 90 | 0.0 | 0.0 | 0.00 | 0.35 | 0.35 | 93 | 1014.8 |
| 20260510010402 | 72 | 90 | 0.0 | 0.0 | 0.00 | 0.35 | 0.35 | 93 | 1014.9 |
| 20260510005858 | 71 | 90 | 0.0 | 0.0 | 0.00 | 0.35 | 0.35 | 93 | 1014.8 |
| 20260510005354 | 72 | 90 | 0.0 | 0.0 | 0.00 | 0.35 | 0.35 | 93 | 1014.8 |
| 20260510004852 | 72 | 99 | 0.0 | 1.7 | 0.00 | 0.35 | 0.35 | 93 | 1014.8 |
| 20260510004349 | 72 | 172 | 0.0 | 0.0 | 0.00 | 0.35 | 0.35 | 93 | 1014.8 |
| 20260510003847 | 72 | 172 | 0.0 | 0.0 | 0.00 | 0.35 | 0.35 | 93 | 1014.8 |
| 20260510003344 | 72 | 81 | 0.0 | 0.0 | 0.00 | 0.35 | 0.35 | 93 | 1015.0 |
| 20260510002842 | 72 | 81 | 0.0 | 0.0 | 0.00 | 0.35 | 0.35 | 93 | 1014.8 |
| 20260510002340 | 72 | 81 | 0.0 | 0.0 | 0.00 | 0.35 | 0.35 | 93 | 1015.0 |
| 20260510001837 | 72 | 74 | 0.9 | 1.7 | 0.00 | 0.35 | 0.35 | 93 | 1014.9 |
| 20260510001335 | 72 | 172 | 0.0 | 0.0 | 0.00 | 0.35 | 0.35 | 93 | 1015.1 |
| 20260510000830 | 72 | 172 | 0.0 | 0.0 | 0.00 | 0.35 | 0.35 | 93 | 1015.0 |
| 20260510000328 | 72 | 172 | 0.0 | 0.0 | 0.00 | 0.35 | 0.35 | 93 | 1015.1 |
| 20260509235825 | 72 | 172 | 0.0 | 0.0 | 0.02 | 0.35 | 0.35 | 93 | 1015.1 |
| 20260509235321 | 72 | 172 | 0.0 | 0.0 | 0.02 | 0.35 | 0.35 | 93 | 1015.0 |
| 20260509234817 | 72 | 172 | 0.0 | 0.0 | 0.02 | 0.34 | 0.34 | 93 | 1015.0 |
| 20260509234314 | 72 | 172 | 0.0 | 0.0 | 0.02 | 0.34 | 0.34 | 93 | 1015.1 |
| 20260509233812 | 72 | 172 | 0.0 | 0.0 | 0.00 | 0.34 | 0.34 | 93 | 1015.1 |
| 20260509233309 | 72 | 160 | 0.9 | 0.9 | 0.00 | 0.34 | 0.34 | 93 | 1015.1 |
| 20260509232805 | 72 | 82 | 0.0 | 0.0 | 0.00 | 0.34 | 0.34 | 93 | 1014.9 |
| 20260509232306 | 72 | 82 | 0.0 | 0.0 | 0.00 | 0.34 | 0.34 | 93 | 1015.1 |
| 20260509231759 | 72 | 82 | 0.0 | 0.0 | 0.00 | 0.34 | 0.34 | 93 | 1015.1 |
| 20260509231256 | 73 | 82 | 0.0 | 0.0 | 0.00 | 0.34 | 0.34 | 93 | 1014.9 |
| 20260509230754 | 72 | 82 | 0.0 | 0.0 | 0.00 | 0.34 | 0.34 | 92 | 1015.1 |
| 20260509230250 | 72 | 82 | 0.0 | 0.0 | 0.00 | 0.34 | 0.34 | 92 | 1014.7 |
| 20260509225745 | 72 | 82 | 0.0 | 0.9 | 0.00 | 0.34 | 0.34 | 92 | 1014.9 |
| 20260509225242 | 72 | 81 | 0.0 | 0.0 | 0.00 | 0.34 | 0.34 | 92 | 1014.7 |
| 20260509224737 | 72 | 90 | 0.0 | 0.0 | 0.02 | 0.34 | 0.34 | 92 | 1014.8 |
| 20260509224235 | 72 | 99 | 0.0 | 0.0 | 0.02 | 0.34 | 0.34 | 92 | 1014.8 |
| 20260509223732 | 72 | 220 | 0.0 | 1.7 | 0.02 | 0.34 | 0.34 | 92 | 1015.0 |
| 20260509223229 | 72 | 98 | 0.0 | 0.9 | 0.02 | 0.34 | 0.34 | 92 | 1015.0 |
| 20260509222726 | 72 | 84 | 0.9 | 2.6 | 0.00 | 0.33 | 0.33 | 92 | 1014.9 |
| 20260509222221 | 72 | 82 | 0.9 | 0.9 | 0.00 | 0.33 | 0.33 | 92 | 1015.2 |
| 20260509221717 | 72 | 81 | 0.0 | 0.9 | 0.00 | 0.33 | 0.33 | 92 | 1014.9 |
| 20260509221213 | 72 | 106 | 0.0 | 1.7 | 0.00 | 0.33 | 0.33 | 92 | 1015.0 |
| 20260509220709 | 72 | 106 | 0.9 | 0.9 | 0.00 | 0.33 | 0.33 | 92 | 1014.8 |
| 20260509220206 | 72 | 75 | 0.0 | 1.7 | 0.00 | 0.33 | 0.33 | 92 | 1014.8 |
| 20260509215701 | 72 | 81 | 0.0 | 0.9 | 0.00 | 0.33 | 0.33 | 92 | 1015.1 |
| 20260509215158 | 71 | 82 | 0.9 | 1.7 | 0.00 | 0.33 | 0.33 | 92 | 1014.8 |
| 20260509214655 | 71 | 348 | 0.0 | 0.9 | 0.00 | 0.33 | 0.33 | 92 | 1014.7 |
| 20260509214152 | 71 | 78 | 1.7 | 4.3 | 0.00 | 0.33 | 0.33 | 92 | 1014.5 |
| 20260509213649 | 72 | 74 | 0.9 | 1.7 | 0.00 | 0.33 | 0.33 | 92 | 1014.6 |
| 20260509213145 | 72 | 90 | 0.9 | 2.6 | 0.00 | 0.33 | 0.33 | 92 | 1014.6 |
| 20260509212642 | 72 | 131 | 1.7 | 1.7 | 0.00 | 0.33 | 0.33 | 92 | 1014.7 |
| 20260509212139 | 72 | 70 | 1.7 | 2.6 | 0.00 | 0.33 | 0.33 | 92 | 1014.6 |
| 20260509211635 | 72 | 48 | 1.7 | 4.3 | 0.00 | 0.33 | 0.33 | 92 | 1014.8 |
| 20260509211132 | 72 | 16 | 0.0 | 2.6 | 0.05 | 0.33 | 0.33 | 91 | 1014.5 |
| 20260509210629 | 71 | 84 | 0.9 | 3.5 | 0.02 | 0.33 | 0.33 | 91 | 1014.6 |
| 20260509210126 | 71 | 14 | 1.7 | 4.3 | 0.00 | 0.32 | 0.32 | 91 | 1014.5 |
| 20260509205620 | 72 | 84 | 4.3 | 5.2 | 0.00 | 0.32 | 0.32 | 91 | 1014.7 |
| 20260509205115 | 72 | 33 | 1.7 | 3.5 | 0.00 | 0.32 | 0.32 | 91 | 1014.7 |
| 20260509204612 | 73 | 82 | 0.0 | 2.6 | 0.00 | 0.32 | 0.32 | 91 | 1014.7 |
| 20260509204108 | 73 | 314 | 3.5 | 5.2 | 0.07 | 0.32 | 0.32 | 90 | 1014.6 |
| 20260509203604 | 75 | 42 | 4.3 | 4.3 | 0.05 | 0.32 | 0.32 | 90 | 1014.5 |
| 20260509203103 | 75 | 0 | 0.0 | 2.6 | 0.00 | 0.31 | 0.31 | 90 | 1014.4 |
| 20260509202556 | 75 | 11 | 1.7 | 2.6 | 0.00 | 0.31 | 0.31 | 90 | 1014.5 |
| 20260509202053 | 75 | 343 | 3.5 | 4.3 | 0.00 | 0.31 | 0.31 | 90 | 1014.6 |
| 20260509201547 | 75 | 0 | 0.0 | 0.9 | 0.02 | 0.31 | 0.31 | 90 | 1014.5 |
| 20260509201046 | 75 | 32 | 0.0 | 1.7 | 0.07 | 0.31 | 0.31 | 90 | 1014.3 |
| 20260509200545 | 75 | 14 | 0.0 | 0.0 | 0.12 | 0.31 | 0.31 | 89 | 1014.5 |
| 20260509200042 | 76 | 186 | 0.0 | 1.7 | 0.07 | 0.30 | 0.30 | 89 | 1014.4 |
| 20260509195537 | 75 | 15 | 0.0 | 0.9 | 0.00 | 0.29 | 0.29 | 89 | 1014.5 |
| 20260509195032 | 76 | 90 | 0.0 | 0.9 | 0.02 | 0.29 | 0.29 | 89 | 1014.3 |
| 20260509194527 | 76 | 106 | 0.0 | 0.0 | 0.00 | 0.28 | 0.28 | 88 | 1014.6 |
| 20260509194025 | 76 | 99 | 0.0 | 0.9 | 0.00 | 0.28 | 0.28 | 88 | 1014.7 |
| 20260509193525 | 76 | 114 | 0.0 | 0.0 | 0.02 | 0.28 | 0.28 | 88 | 1014.5 |
| 20260509193022 | 76 | 114 | 0.0 | 0.9 | 0.05 | 0.28 | 0.28 | 87 | 1014.1 |
| 20260509192518 | 77 | 127 | 1.7 | 1.7 | 0.07 | 0.28 | 0.28 | 86 | 1014.1 |
| 20260509192013 | 77 | 0 | 0.0 | 3.5 | 0.12 | 0.28 | 0.28 | 84 | 1014.3 |
| 20260509191508 | 78 | 49 | 0.0 | 2.6 | 0.14 | 0.26 | 0.26 | 83 | 1014.3 |
| 20260509191004 | 79 | 81 | 1.7 | 1.7 | 0.07 | 0.25 | 0.25 | 81 | 1014.3 |
| 20260509190501 | 80 | 82 | 0.0 | 0.9 | 0.00 | 0.24 | 0.24 | 79 | 1014.5 |
| 20260509185959 | 79 | 99 | 0.0 | 1.7 | 0.00 | 0.24 | 0.24 | 78 | 1014.3 |
| 20260509185456 | 80 | 90 | 0.0 | 1.7 | 0.00 | 0.24 | 0.24 | 77 | 1014.2 |
| 20260509184952 | 80 | 120 | 1.7 | 1.7 | 0.00 | 0.24 | 0.24 | 77 | 1014.3 |
| 20260509184451 | 80 | 74 | 1.7 | 1.7 | 0.00 | 0.24 | 0.24 | 76 | 1014.4 |
| 20260509183946 | 80 | 145 | 0.0 | 1.7 | 0.00 | 0.24 | 0.24 | 76 | 1014.3 |
| 20260509183441 | 80 | 140 | 1.7 | 1.7 | 0.00 | 0.24 | 0.24 | 75 | 1014.3 |
| 20260509182938 | 80 | 98 | 0.9 | 2.6 | 0.00 | 0.24 | 0.24 | 75 | 1014.6 |
| 20260509182434 | 81 | 35 | 0.9 | 2.6 | 0.00 | 0.24 | 0.24 | 74 | 1014.4 |
| 20260509181931 | 82 | 60 | 1.7 | 2.6 | 0.00 | 0.24 | 0.24 | 74 | 1014.4 |
| 20260509181430 | 82 | 115 | 1.7 | 3.5 | 0.00 | 0.24 | 0.24 | 73 | 1014.6 |
| 20260509180926 | 83 | 331 | 0.0 | 2.6 | 0.00 | 0.24 | 0.24 | 72 | 1014.4 |
| 20260509180422 | 83 | 45 | 2.6 | 3.5 | 0.00 | 0.24 | 0.24 | 73 | 1014.5 |
| 20260509175919 | 82 | 83 | 0.9 | 3.5 | 0.00 | 0.24 | 0.24 | 74 | 1014.4 |
| 20260509175415 | 81 | 102 | 2.6 | 5.2 | 0.00 | 0.24 | 0.24 | 75 | 1014.7 |
| 20260509174912 | 82 | 165 | 0.0 | 4.3 | 0.00 | 0.24 | 0.24 | 75 | 1014.8 |
| 20260509174408 | 81 | 82 | 1.7 | 3.5 | 0.00 | 0.24 | 0.24 | 75 | 1015.1 |
| 20260509173904 | 81 | 143 | 1.7 | 3.5 | 0.00 | 0.24 | 0.24 | 76 | 1014.8 |
| 20260509173403 | 80 | 126 | 0.0 | 2.6 | 0.00 | 0.24 | 0.24 | 77 | 1015.2 |
| 20260509172900 | 79 | 99 | 1.7 | 6.1 | 0.00 | 0.24 | 0.24 | 77 | 1015.2 |
| 20260509172357 | 79 | 132 | 3.5 | 4.3 | 0.00 | 0.24 | 0.24 | 76 | 1015.0 |
| 20260509171853 | 79 | 14 | 0.0 | 1.7 | 0.00 | 0.24 | 0.24 | 77 | 1015.1 |
| 20260509171349 | 79 | 180 | 0.0 | 2.6 | 0.00 | 0.24 | 0.24 | 77 | 1014.9 |
| 20260509170846 | 79 | 69 | 2.6 | 2.6 | 0.00 | 0.24 | 0.24 | 77 | 1015.1 |
| 20260509170341 | 80 | 166 | 0.9 | 2.6 | 0.00 | 0.24 | 0.24 | 77 | 1015.0 |
| 20260509165836 | 79 | 68 | 1.7 | 3.5 | 0.00 | 0.24 | 0.24 | 77 | 1015.0 |
| 20260509165331 | 80 | 106 | 0.9 | 2.6 | 0.00 | 0.24 | 0.24 | 77 | 1015.2 |
| 20260509164827 | 79 | 29 | 0.9 | 2.6 | 0.00 | 0.24 | 0.24 | 78 | 1015.2 |
| 20260509164323 | 78 | 270 | 2.6 | 2.6 | 0.00 | 0.24 | 0.24 | 78 | 1015.1 |
| 20260509163820 | 78 | 80 | 1.7 | 2.6 | 0.00 | 0.24 | 0.24 | 78 | 1015.0 |
| 20260509163316 | 78 | 117 | 1.7 | 1.7 | 0.00 | 0.24 | 0.24 | 79 | 1015.1 |
| 20260509162816 | 78 | 194 | 0.0 | 2.6 | 0.00 | 0.24 | 0.24 | 79 | 1015.3 |
| 20260509162309 | 77 | 154 | 0.9 | 2.6 | 0.00 | 0.24 | 0.24 | 80 | 1015.2 |
| 20260509161805 | 77 | 157 | 0.0 | 2.6 | 0.00 | 0.24 | 0.24 | 80 | 1015.5 |
| 20260509161301 | 77 | 138 | 2.6 | 2.6 | 0.00 | 0.24 | 0.24 | 80 | 1015.5 |
| 20260509160757 | 77 | 127 | 0.0 | 1.7 | 0.00 | 0.24 | 0.24 | 81 | 1015.4 |
| 20260509160253 | 76 | 221 | 0.0 | 1.7 | 0.00 | 0.24 | 0.24 | 81 | 1015.5 |
| 20260509155748 | 76 | 190 | 2.6 | 2.6 | 0.00 | 0.24 | 0.24 | 82 | 1015.4 |
| 20260509155245 | 75 | 140 | 1.7 | 1.7 | 0.00 | 0.24 | 0.24 | 82 | 1015.3 |
| 20260509154741 | 75 | 172 | 0.0 | 2.6 | 0.00 | 0.24 | 0.24 | 82 | 1014.9 |
| 20260509154239 | 75 | 152 | 2.6 | 2.6 | 0.00 | 0.24 | 0.24 | 82 | 1015.3 |
| 20260509153736 | 75 | 74 | 0.9 | 2.6 | 0.00 | 0.24 | 0.24 | 82 | 1015.3 |
| 20260509153231 | 75 | 66 | 1.7 | 1.7 | 0.00 | 0.24 | 0.24 | 82 | 1015.5 |
| 20260509152728 | 75 | 59 | 2.6 | 2.6 | 0.00 | 0.24 | 0.24 | 81 | 1015.1 |
| 20260509152225 | 75 | 40 | 2.6 | 2.6 | 0.00 | 0.24 | 0.24 | 81 | 1015.6 |
| 20260509151722 | 75 | 17 | 1.7 | 2.6 | 0.00 | 0.24 | 0.24 | 81 | 1015.8 |
| 20260509151218 | 75 | 101 | 0.0 | 1.7 | 0.00 | 0.24 | 0.24 | 82 | 1015.7 |
| 20260509150716 | 75 | 29 | 1.7 | 2.6 | 0.00 | 0.24 | 0.24 | 81 | 1016.0 |
| 20260509150214 | 75 | 66 | 1.7 | 2.6 | 0.00 | 0.24 | 0.24 | 81 | 1016.0 |
| 20260509145710 | 75 | 72 | 2.6 | 4.3 | 0.00 | 0.24 | 0.24 | 81 | 1015.7 |
| 20260509145206 | 75 | 90 | 2.6 | 4.3 | 0.00 | 0.24 | 0.24 | 81 | 1015.9 |
| 20260509144702 | 75 | 69 | 2.6 | 2.6 | 0.00 | 0.24 | 0.24 | 81 | 1015.9 |
| 20260509144200 | 74 | 325 | 0.0 | 2.6 | 0.00 | 0.24 | 0.24 | 81 | 1015.8 |
| 20260509143657 | 74 | 286 | 0.0 | 0.0 | 0.00 | 0.24 | 0.24 | 82 | 1015.8 |
| 20260509143154 | 74 | 74 | 0.9 | 1.7 | 0.00 | 0.24 | 0.24 | 82 | 1016.1 |
| 20260509142649 | 73 | 337 | 0.0 | 1.7 | 0.00 | 0.24 | 0.24 | 82 | 1015.8 |
| 20260509142146 | 73 | 40 | 0.0 | 1.7 | 0.00 | 0.24 | 0.24 | 83 | 1015.8 |
| 20260509141642 | 73 | 66 | 0.0 | 2.6 | 0.00 | 0.24 | 0.24 | 83 | 1015.9 |
| 20260509141138 | 74 | 84 | 0.9 | 1.7 | 0.00 | 0.24 | 0.24 | 83 | 1015.8 |
| 20260509140636 | 73 | 304 | 0.0 | 1.7 | 0.00 | 0.24 | 0.24 | 83 | 1015.7 |
| 20260509140134 | 73 | 291 | 0.0 | 1.7 | 0.00 | 0.24 | 0.24 | 84 | 1015.5 |
| 20260509135630 | 72 | 342 | 0.0 | 1.7 | 0.00 | 0.24 | 0.24 | 84 | 1015.6 |
| 20260509135129 | 72 | 0 | 0.0 | 1.7 | 0.00 | 0.24 | 0.24 | 85 | 1015.9 |
| 20260509134625 | 72 | 7 | 0.9 | 1.7 | 0.00 | 0.24 | 0.24 | 85 | 1015.9 |
| 20260509134122 | 71 | 237 | 1.7 | 2.6 | 0.00 | 0.24 | 0.24 | 86 | 1015.9 |
| 20260509133620 | 71 | 4 | 0.0 | 1.7 | 0.00 | 0.24 | 0.24 | 86 | 1015.7 |
| 20260509133117 | 71 | 0 | 0.0 | 1.7 | 0.00 | 0.24 | 0.24 | 86 | 1015.5 |
| 20260509132615 | 71 | 0 | 0.0 | 0.0 | 0.00 | 0.24 | 0.24 | 87 | 1015.4 |
| 20260509132113 | 71 | 286 | 0.9 | 1.7 | 0.00 | 0.24 | 0.24 | 87 | 1015.4 |
| 20260509131609 | 71 | 312 | 1.7 | 3.5 | 0.00 | 0.24 | 0.24 | 87 | 1015.3 |
| 20260509131106 | 71 | 353 | 0.9 | 2.6 | 0.00 | 0.24 | 0.24 | 87 | 1015.5 |
| 20260509130601 | 71 | 0 | 0.0 | 3.5 | 0.00 | 0.24 | 0.24 | 88 | 1015.4 |
| 20260509130058 | 72 | 0 | 0.0 | 1.7 | 0.00 | 0.24 | 0.24 | 88 | 1015.3 |
| 20260509125555 | 72 | 66 | 0.0 | 0.9 | 0.00 | 0.24 | 0.24 | 88 | 1015.2 |
| 20260509125051 | 72 | 90 | 0.0 | 0.0 | 0.00 | 0.24 | 0.24 | 89 | 1015.2 |
| 20260509124548 | 71 | 90 | 0.0 | 0.0 | 0.00 | 0.24 | 0.24 | 89 | 1014.9 |
| 20260509124045 | 71 | 90 | 0.0 | 0.0 | 0.00 | 0.24 | 0.24 | 90 | 1014.9 |
| 20260509123543 | 72 | 74 | 0.0 | 0.0 | 0.00 | 0.24 | 0.24 | 90 | 1015.0 |
| 20260509123039 | 71 | 74 | 0.0 | 0.0 | 0.00 | 0.24 | 0.24 | 90 | 1014.9 |
| 20260509122536 | 71 | 90 | 0.0 | 1.7 | 0.00 | 0.24 | 0.24 | 91 | 1015.0 |
| 20260509122033 | 71 | 81 | 0.0 | 0.0 | 0.00 | 0.24 | 0.24 | 91 | 1014.9 |
| 20260509121529 | 71 | 97 | 0.0 | 0.0 | 0.00 | 0.24 | 0.24 | 91 | 1014.8 |
| 20260509121027 | 70 | 97 | 0.9 | 0.9 | 0.00 | 0.24 | 0.24 | 91 | 1014.8 |
| 20260509120525 | 70 | 40 | 0.0 | 0.0 | 0.00 | 0.24 | 0.24 | 91 | 1015.0 |
| 20260509120023 | 70 | 52 | 1.7 | 1.7 | 0.00 | 0.24 | 0.24 | 91 | 1015.2 |
| 20260509115519 | 69 | 32 | 0.0 | 1.7 | 0.00 | 0.24 | 0.24 | 92 | 1015.0 |
| 20260509115018 | 69 | 270 | 0.0 | 0.0 | 0.00 | 0.24 | 0.24 | 92 | 1015.0 |
| 20260509114515 | 69 | 270 | 0.0 | 0.0 | 0.00 | 0.24 | 0.24 | 92 | 1015.0 |
| 20260509114014 | 69 | 352 | 0.0 | 1.7 | 0.00 | 0.24 | 0.24 | 92 | 1014.9 |
| 20260509113512 | 69 | 90 | 0.0 | 0.9 | 0.00 | 0.24 | 0.24 | 92 | 1014.1 |
| 20260509113010 | 69 | 120 | 0.0 | 0.0 | 0.00 | 0.24 | 0.24 | 92 | 1014.6 |
| 20260509112506 | 68 | 81 | 0.0 | 0.0 | 0.00 | 0.24 | 0.24 | 92 | 1014.3 |
| 20260509112002 | 68 | 84 | 0.0 | 0.0 | 0.00 | 0.24 | 0.24 | 92 | 1014.4 |
| 20260509111500 | 68 | 48 | 0.0 | 1.7 | 0.00 | 0.24 | 0.24 | 92 | 1014.2 |
| 20260509110957 | 68 | 60 | 0.0 | 1.7 | 0.00 | 0.24 | 0.24 | 92 | 1014.2 |
| 20260509110453 | 68 | 60 | 0.0 | 1.7 | 0.00 | 0.24 | 0.24 | 92 | 1013.8 |
| 20260509105951 | 68 | 286 | 1.7 | 1.7 | 0.00 | 0.24 | 0.24 | 92 | 1013.8 |
| 20260509105449 | 68 | 194 | 1.7 | 3.5 | 0.00 | 0.24 | 0.24 | 93 | 1013.4 |
| 20260509104946 | 67 | 82 | 0.9 | 2.6 | 0.00 | 0.24 | 0.24 | 93 | 1013.3 |
| 20260509104443 | 67 | 100 | 1.7 | 4.3 | 0.00 | 0.24 | 0.24 | 93 | 1012.9 |
| 20260509103940 | 67 | 104 | 2.6 | 5.2 | 0.00 | 0.24 | 0.24 | 93 | 1012.6 |
| 20260509103438 | 67 | 90 | 1.7 | 2.6 | 0.00 | 0.24 | 0.24 | 94 | 1012.9 |
| 20260509102936 | 67 | 119 | 3.5 | 4.3 | 0.00 | 0.24 | 0.24 | 94 | 1012.9 |
| 20260509102433 | 67 | 101 | 2.6 | 3.5 | 0.00 | 0.24 | 0.24 | 94 | 1013.0 |
| 20260509101928 | 66 | 126 | 0.9 | 5.2 | 0.00 | 0.24 | 0.24 | 94 | 1012.7 |
| 20260509101425 | 67 | 104 | 4.3 | 4.3 | 0.00 | 0.24 | 0.24 | 94 | 1012.9 |
| 20260509100923 | 66 | 106 | 3.5 | 3.5 | 0.00 | 0.24 | 0.24 | 94 | 1012.9 |
| 20260509100420 | 67 | 106 | 0.0 | 4.3 | 0.00 | 0.24 | 0.24 | 94 | 1013.0 |
| 20260509095916 | 66 | 187 | 0.9 | 3.5 | 0.00 | 0.24 | 0.24 | 94 | 1012.9 |
| 20260509095414 | 66 | 125 | 2.6 | 4.3 | 0.00 | 0.24 | 0.24 | 94 | 1013.0 |
| 20260509094910 | 66 | 110 | 3.5 | 5.2 | 0.00 | 0.24 | 0.24 | 94 | 1013.2 |
| 20260509094407 | 66 | 144 | 2.6 | 3.5 | 0.00 | 0.24 | 0.24 | 94 | 1013.3 |
| 20260509093905 | 66 | 98 | 2.6 | 2.6 | 0.00 | 0.24 | 0.24 | 94 | 1013.5 |
| 20260509093402 | 66 | 108 | 1.7 | 3.5 | 0.00 | 0.24 | 0.24 | 94 | 1013.8 |
| 20260509092900 | 66 | 117 | 0.0 | 1.7 | 0.00 | 0.24 | 0.24 | 94 | 1014.1 |
| 20260509092357 | 66 | 23 | 0.0 | 0.0 | 0.00 | 0.24 | 0.24 | 94 | 1014.3 |
| 20260509091856 | 66 | 15 | 0.0 | 0.9 | 0.00 | 0.24 | 0.24 | 94 | 1014.2 |
| 20260509091352 | 66 | 286 | 0.0 | 0.9 | 0.00 | 0.24 | 0.24 | 94 | 1014.3 |
| 20260509090850 | 66 | 165 | 0.0 | 0.0 | 0.00 | 0.24 | 0.24 | 94 | 1014.1 |
| 20260509090347 | 66 | 165 | 0.0 | 0.9 | 0.00 | 0.24 | 0.24 | 94 | 1014.0 |
| 20260509085844 | 66 | 99 | 0.0 | 2.6 | 0.00 | 0.24 | 0.24 | 94 | 1014.0 |
| 20260509085341 | 66 | 126 | 0.0 | 1.7 | 0.00 | 0.24 | 0.24 | 94 | 1014.1 |
| 20260509084838 | 66 | 99 | 0.0 | 1.7 | 0.00 | 0.24 | 0.24 | 94 | 1014.0 |
| 20260509084335 | 66 | 106 | 0.0 | 1.7 | 0.00 | 0.24 | 0.24 | 94 | 1014.0 |
| 20260509083833 | 66 | 106 | 1.7 | 1.7 | 0.00 | 0.24 | 0.24 | 94 | 1014.0 |
| 20260509083329 | 66 | 113 | 0.0 | 1.7 | 0.00 | 0.24 | 0.24 | 94 | 1013.9 |
| 20260509082826 | 66 | 120 | 1.7 | 3.5 | 0.00 | 0.24 | 0.24 | 94 | 1014.0 |
| 20260509082322 | 66 | 120 | 0.0 | 3.5 | 0.00 | 0.24 | 0.24 | 94 | 1013.9 |
| 20260509081820 | 66 | 148 | 0.0 | 2.6 | 0.00 | 0.24 | 0.24 | 94 | 1014.0 |
| 20260509081316 | 66 | 120 | 1.7 | 3.5 | 0.00 | 0.24 | 0.24 | 94 | 1014.1 |
| 20260509080815 | 66 | 124 | 2.6 | 3.5 | 0.00 | 0.24 | 0.24 | 94 | 1014.0 |
| 20260509080312 | 66 | 109 | 0.9 | 2.6 | 0.00 | 0.24 | 0.24 | 94 | 1013.9 |